TimeMDT,TemperatureF,Dew PointF,Humidity,Sea Level PressureIn,VisibilityMPH,Wind Direction,Wind SpeedMPH,Gust SpeedMPH,PrecipitationIn,Events,Conditions,WindDirDegrees,DateUTC
12:15 AM,71.6,44.6,38,30.17,10.0,North,-9999.0,-,N/A,,Clear,0,2013-09-05 06:15:00
12:35 AM,71.6,44.6,38,30.17,10.0,North,-9999.0,-,N/A,,Clear,0,2013-09-05 06:35:00
12:55 AM,69.8,44.6,40,30.17,10.0,North,-9999.0,-,N/A,,Clear,0,2013-09-05 06:55:00
1:15 AM,69.8,44.6,40,30.17,10.0,North,-9999.0,-,N/A,,Clear,0,2013-09-05 07:15:00
1:35 AM,69.8,44.6,40,30.17,10.0,North,-9999.0,-,N/A,,Clear,0,2013-09-05 07:35:00
1:55 AM,69.8,44.6,40,30.17,10.0,North,-9999.0,-,N/A,,Scattered Clouds,0,2013-09-05 07:55:00
2:15 AM,69.8,46.4,43,30.17,10.0,North,-9999.0,-,N/A,,Mostly Cloudy,0,2013-09-05 08:15:00
2:35 AM,69.8,46.4,43,30.17,10.0,North,-9999.0,-,N/A,,Scattered Clouds,0,2013-09-05 08:35:00
2:55 AM,69.8,46.4,43,30.16,10.0,North,-9999.0,-,N/A,,Clear,0,2013-09-05 08:55:00
3:15 AM,69.8,46.4,43,30.15,10.0,North,-9999.0,-,N/A,,Clear,0,2013-09-05 09:15:00
3:35 AM,69.8,46.4,43,30.15,10.0,North,-9999.0,-,N/A,,Clear,0,2013-09-05 09:35:00
3:55 AM,69.8,46.4,43,30.15,10.0,North,-9999.0,-,N/A,,Clear,0,2013-09-05 09:55:00
4:15 AM,71.6,46.4,41,30.15,10.0,North,-9999.0,-,N/A,,Clear,0,2013-09-05 10:15:00
4:35 AM,71.6,46.4,41,30.14,10.0,North,-9999.0,-,N/A,,Clear,0,2013-09-05 10:35:00
4:55 AM,71.6,46.4,41,30.14,10.0,North,-9999.0,-,N/A,,Clear,0,2013-09-05 10:55:00
5:15 AM,71.6,46.4,41,30.14,10.0,North,-9999.0,-,N/A,,Clear,0,2013-09-05 11:15:00
5:35 AM,73.4,46.4,38,30.15,10.0,North,-9999.0,-,N/A,,Clear,0,2013-09-05 11:35:00
5:55 AM,71.6,46.4,41,30.15,10.0,North,-9999.0,-,N/A,,Clear,0,2013-09-05 11:55:00
6:15 AM,71.6,48.2,43,30.15,10.0,North,-9999.0,-,N/A,,Clear,0,2013-09-05 12:15:00
6:35 AM,69.8,48.2,46,30.16,10.0,North,-9999.0,-,N/A,,Clear,0,2013-09-05 12:35:00
6:55 AM,71.6,48.2,43,30.16,10.0,North,-9999.0,-,N/A,,Clear,0,2013-09-05 12:55:00
7:15 AM,71.6,48.2,43,30.17,10.0,North,-9999.0,-,N/A,,Clear,0,2013-09-05 13:15:00
7:35 AM,73.4,48.2,41,30.18,10.0,North,-9999.0,-,N/A,,Clear,0,2013-09-05 13:35:00
7:55 AM,75.2,48.2,38,30.19,10.0,North,-9999.0,-,N/A,,Clear,0,2013-09-05 13:55:00
8:15 AM,77.0,50.0,39,30.19,10.0,North,-9999.0,-,N/A,,Clear,0,2013-09-05 14:15:00
8:35 AM,78.8,50.0,36,30.19,10.0,North,-9999.0,-,N/A,,Clear,0,2013-09-05 14:35:00
8:55 AM,78.8,50.0,36,30.20,10.0,North,-9999.0,-,N/A,,Clear,0,2013-09-05 14:55:00
9:15 AM,80.6,50.0,34,30.20,10.0,North,-9999.0,-,N/A,,Clear,0,2013-09-05 15:15:00
9:35 AM,80.6,50.0,34,30.20,10.0,North,-9999.0,-,N/A,,Clear,0,2013-09-05 15:35:00
9:55 AM,82.4,50.0,32,30.20,10.0,North,-9999.0,-,N/A,,Clear,0,2013-09-05 15:55:00
10:15 AM,84.2,51.8,33,30.20,10.0,North,-9999.0,-,N/A,,Clear,0,2013-09-05 16:15:00
10:35 AM,84.2,51.8,33,30.21,10.0,North,-9999.0,-,N/A,,Clear,0,2013-09-05 16:35:00
10:55 AM,86.0,51.8,31,30.21,10.0,North,-9999.0,-,N/A,,Clear,0,2013-09-05 16:55:00
11:15 AM,86.0,51.8,31,30.21,10.0,North,-9999.0,-,N/A,,Clear,0,2013-09-05 17:15:00
11:35 AM,87.8,51.8,29,30.20,10.0,North,-9999.0,-,N/A,,Clear,0,2013-09-05 17:35:00
11:55 AM,87.8,50.0,27,30.20,10.0,North,-9999.0,-,N/A,,Clear,0,2013-09-05 17:55:00
12:15 PM,87.8,50.0,27,30.20,10.0,North,-9999.0,-,N/A,,Clear,0,2013-09-05 18:15:00
12:35 PM,87.8,50.0,27,30.19,10.0,North,-9999.0,-,N/A,,Clear,0,2013-09-05 18:35:00
12:55 PM,89.6,50.0,26,30.19,10.0,North,-9999.0,-,N/A,,Scattered Clouds,0,2013-09-05 18:55:00
1:15 PM,89.6,48.2,24,30.19,10.0,North,-9999.0,-,N/A,,Scattered Clouds,0,2013-09-05 19:15:00
1:35 PM,89.6,48.2,24,30.19,10.0,North,-9999.0,-,N/A,,Scattered Clouds,0,2013-09-05 19:35:00
1:55 PM,89.6,48.2,24,30.18,10.0,North,-9999.0,-,N/A,,Scattered Clouds,0,2013-09-05 19:55:00
2:15 PM,89.6,48.2,24,30.17,10.0,North,-9999.0,-,N/A,,Scattered Clouds,0,2013-09-05 20:15:00
2:35 PM,87.8,46.4,24,30.16,10.0,North,-9999.0,-,N/A,,Mostly Cloudy,0,2013-09-05 20:35:00
2:55 PM,89.6,46.4,22,30.15,10.0,North,-9999.0,-,N/A,,Scattered Clouds,0,2013-09-05 20:55:00
3:15 PM,89.6,46.4,22,30.14,10.0,North,-9999.0,-,N/A,,Clear,0,2013-09-05 21:15:00
3:35 PM,91.4,46.4,21,30.14,10.0,North,-9999.0,-,N/A,,Clear,0,2013-09-05 21:35:00
3:55 PM,91.4,46.4,21,30.14,10.0,North,-9999.0,-,N/A,,Clear,0,2013-09-05 21:55:00
4:15 PM,89.6,46.4,22,30.13,10.0,North,-9999.0,-,N/A,,Scattered Clouds,0,2013-09-05 22:15:00
4:35 PM,87.8,46.4,24,30.13,10.0,North,-9999.0,-,N/A,,Scattered Clouds,0,2013-09-05 22:35:00
4:55 PM,89.6,46.4,22,30.13,10.0,North,-9999.0,-,N/A,,Scattered Clouds,0,2013-09-05 22:55:00
5:15 PM,89.6,46.4,22,30.13,10.0,North,-9999.0,-,N/A,,Clear,0,2013-09-05 23:15:00
5:35 PM,87.8,46.4,24,30.12,10.0,North,-9999.0,-,N/A,,Clear,0,2013-09-05 23:35:00
5:55 PM,87.8,44.6,22,30.11,10.0,North,-9999.0,-,N/A,,Clear,0,2013-09-05 23:55:00
6:15 PM,87.8,44.6,22,30.11,10.0,North,-9999.0,-,N/A,,Clear,0,2013-09-06 00:15:00
6:35 PM,87.8,44.6,22,30.11,10.0,North,-9999.0,-,N/A,,Clear,0,2013-09-06 00:35:00
6:55 PM,86.0,42.8,22,30.11,10.0,North,-9999.0,-,N/A,,Clear,0,2013-09-06 00:55:00
7:15 PM,86.0,42.8,22,30.11,10.0,North,-9999.0,-,N/A,,Clear,0,2013-09-06 01:15:00
7:35 PM,82.4,42.8,25,30.10,10.0,North,-9999.0,-,N/A,,Clear,0,2013-09-06 01:35:00
7:55 PM,82.4,44.6,26,30.11,10.0,North,-9999.0,-,N/A,,Clear,0,2013-09-06 01:55:00
8:15 PM,80.6,44.6,28,30.11,10.0,North,-9999.0,-,N/A,,Clear,0,2013-09-06 02:15:00
8:35 PM,78.8,44.6,30,30.12,10.0,North,-9999.0,-,N/A,,Clear,0,2013-09-06 02:35:00
8:55 PM,78.8,46.4,32,30.12,10.0,North,-9999.0,-,N/A,,Clear,0,2013-09-06 02:55:00
9:15 PM,77.0,46.4,34,30.13,10.0,North,-9999.0,-,N/A,,Clear,0,2013-09-06 03:15:00
9:35 PM,77.0,44.6,32,30.14,10.0,North,-9999.0,-,N/A,,Clear,0,2013-09-06 03:35:00
9:55 PM,77.0,44.6,32,30.15,10.0,North,-9999.0,-,N/A,,Clear,0,2013-09-06 03:55:00
10:15 PM,77.0,44.6,32,30.16,10.0,North,-9999.0,-,N/A,,Clear,0,2013-09-06 04:15:00
10:35 PM,77.0,46.4,34,30.16,10.0,North,-9999.0,-,N/A,,Clear,0,2013-09-06 04:35:00
10:55 PM,77.0,44.6,32,30.16,10.0,North,-9999.0,-,N/A,,Clear,0,2013-09-06 04:55:00
11:15 PM,75.2,46.4,36,30.16,10.0,North,-9999.0,-,N/A,,Clear,0,2013-09-06 05:15:00
11:35 PM,73.4,46.4,38,30.16,10.0,North,-9999.0,-,N/A,,Clear,0,2013-09-06 05:35:00
11:55 PM,75.2,44.6,34,30.16,10.0,North,-9999.0,-,N/A,,Clear,0,2013-09-06 05:55:00